Content
SEND FEEDBACK

Daily
Averages
Monthly
Summary
Mexico

PUEBLA - JARDINES DE SAN MANUEL, PUEBLA


Home > North America > Mexico > Puebla
Elevation: 2122 meters     Latitude: 19 00N     Longitude: 098 11W

WEATHER
 
SELECT A DAY
Number of Records: 120,923;   Date Range: 1/1/95 - 7/30/14
 
SHARE

PRINT THIS DATA

[ ← Previous Day ]
WEATHER ALMANAC - 3 MAY, 2013
[ Next Day → ]
[ °F ]   °C
Weather ElementAverageHighLow
Temperature17 °C23 °C (1:43 pm)10 °C (6:41 am)
Dewpoint7.6 °C11.7 °C (6:40 pm)5 °C (5:44 pm)
Humidity54.1 %82 % (11:40 pm)31 % (12:40 pm)
Barometer1022.7 hPa1029.1 hPa (9:40 am)1004.4 hPa (6:40 pm)
Wind Speed14.6 km/h35.2 km/h (6:42 pm)
Weather ElementAverage
Visibility9 km
Wind DirectionSSW (199.2 °)

Weather ElementTotal
Precipitation---
Heating Degree Days1.8 (Base 18.3)
Growing Degree Days6.5 (Base 10)
Averaged from 28 records on 3 May, 2013
WEATHER CONDITIONS BREAKOUT
WIND DIRECTION BREAKOUT
WEATHER BY HOUR - 3 MAY, 2013
[ °F ]   °C
Local TimeTemperatureDewpointHumidityBarometerVisibilityWind DirectionWind SpeedGust SpeedPrecipitationEventsConditions
12:55 AM17.8 °C7.8 °C41 %1005.1 hPa4.8 kmNorth3.5 km/h
1:40 AM14 °C8 °C67 %1028.1 hPa9.7 kmNorth (350°)16.7 km/hClear
2:40 AM13 °C8 °C72 %1027.8 hPa9.7 kmNorth (360°)13 km/hClear
3:47 AM13 °C8 °C72 %1027.4 hPa9.7 kmNNW (330°)9.3 km/hOvercast
5:44 AM11 °C6 °C71 %1028.1 hPa9.7 kmNorth (360°)13 km/hPartly Cloudy
6:41 AM10 °C6 °C76 %1028.1 hPa9.7 kmNNW (340°)16.7 km/hPartly Cloudy
6:58 AM13.3 °C8.3 °C65 %1010.2 hPa4.8 kmCalm
7:42 AM11 °C6 °C71 %1028.8 hPa9.7 kmNorth (350°)11.1 km/hClear
8:42 AM13 °C6 °C63 %1028.8 hPa9.7 kmNorth (360°)18.5 km/hClear
9:40 AM16 °C7 °C55 %1029.1 hPa9.7 kmNorth (360°)22.2 km/hClear
9:50 AM16.7 °C8.9 °C50 %1013.5 hPa4.8 kmCalmHaze
10:45 AM19 °C7 °C46 %1028.8 hPa9.7 kmNNE (30°)5.6 km/hClear
11:42 AM20 °C6 °C40 %1028.1 hPa9.7 kmSouth (190°)7.4 km/hPartly Cloudy
12:40 PM22.2 °C8.9 °C31 %1011.9 hPa9.7 kmENE (70°)7.2 km/hHaze
12:46 PM22 °C6 °C35 %1027.4 hPa9.7 kmSE (130°)13 km/hScattered Clouds
1:43 PM23 °C6 °C33 %1026.1 hPa9.7 kmSSE (160°)16.7 km/hMostly Cloudy
2:41 PM23 °C6 °C33 %1025.1 hPa9.7 kmSE (130°)25.9 km/hMostly Cloudy
3:42 PM23 °C6 °C33 %1024.4 hPa9.7 kmSSW (200°)20.4 km/hMostly Cloudy
4:42 PM22 °C7 °C38 %1023.4 hPa9.7 kmSE (140°)29.6 km/hMostly Cloudy
5:44 PM22 °C5 °C33 %1022.7 hPa9.7 kmSouth (190°)24.1 km/hMostly Cloudy
6:40 PM21.1 °C11.7 °C44 %1004.4 hPa9.7 kmESE (110°)3.5 km/hHaze
6:42 PM20 °C7 °C43 %1023 hPa9.7 kmSE (140°)35.2 km/hMostly Cloudy
7:43 PM19 °C8 °C49 %1023.7 hPa9.7 kmSE (140°)31.5 km/hScattered Clouds
8:43 PM16 °C9 °C63 %1024.7 hPa9.7 kmSSE (150°)18.5 km/hPartly Cloudy
9:44 PM15 °C9 °C67 %1026.1 hPa9.7 kmSSE (160°)16.7 km/hMostly Cloudy
9:45 PM14.4 °C10.6 °C69 %1006.1 hPa4.8 kmENE (70°)7.2 km/hScattered Clouds
10:40 PM14 °C9 °C72 %1026.8 hPa9.7 kmSouth (170°)11.1 km/hMostly Cloudy
11:40 PM12 °C9 °C82 %1027.4 hPa9.7 kmSouth (190°)11.1 km/hMostly Cloudy
Hourly data recorded from MMPB, located 0 kilometers away from Puebla - Jardines de San Manuel, Puebla







STORIES FROM OUR PARTNERS